#timestamp,LO_Frequency,Hit,StdDev 
1652029215.8,286047001.7,N
1652029235.6,286047001.4,N
1652029255.5,286047002.2,N
1652029275.3,286047001.5,N
1652029295.1,286047001.9,N
1652029315.9,286047001.4,N
1652029335.7,286047004.1,Y
1652029355.6,286047003.9,P
1652029375.4,286047001.9,N
1652029395.2,286047001.9,N
1652029415.1,286047000.3,N
1652029416.0,286047000.3,N
1652029435.8,286046999.8,N
1652029455.7,286047000.2,N
1652029475.5,286047000.5,N
1652029495.3,286047000.0,N
1652029515.2,286047000.6,N
1652029535.9,286047001.0,N
1652029555.7,286047000.7,N
1652029575.6,286047000.1,N
1652029595.4,286047002.5,N
1652029615.2,286047002.0,N
1652029635.1,286047002.1,N
1652029636.0,286047002.1,N
1652029655.8,286047001.8,N
1652029675.7,286047002.5,N
1652029695.5,286047002.0,N
1652029715.3,286047002.2,N
1652029735.2,286047004.0,Y
1652029755.0,286047002.7,P
1652029755.9,286047002.7,P
1652029775.8,286046999.9,N
1652029795.6,286047001.5,N
1652029815.4,286047001.9,N
1652029835.3,286047002.5,N
1652029855.1,286047001.8,N
1652029875.8,286047002.3,N
1652029895.7,286047002.0,N
1652029915.5,286047002.6,Y
1652029935.4,286046998.4,P
1652029955.2,286046998.4,N
1652029975.0,286046998.5,N
1652029975.9,286046998.5,N
1652029995.8,286046999.4,N
1652030015.6,286046999.6,N
1652030035.5,286046996.5,Y
1652030055.3,286047000.8,P
1652030075.1,286047000.2,N
1652030095.9,286046999.9,N
1652030115.7,286046998.1,Y
1652030135.6,286047000.9,P
1652030155.4,286047000.9,N
1652030175.2,286047001.0,N
1652030195.1,286047000.8,N
1652030196.0,286047000.8,N
1652030215.8,286046999.9,N
1652030235.6,286046999.9,N
1652030255.5,286046999.7,N
1652030275.3,286047002.8,Y
1652030295.2,286047000.2,P
1652030315.9,286047002.5,P
1652030335.7,286047016.7,P
1652030355.6,286047016.0,N
1652030375.4,286047016.8,N
1652030395.2,286047013.8,N
1652030415.1,286047009.5,N
1652030416.0,286047009.5,N
1652030435.8,286047007.9,N
1652030455.7,286047007.9,N
1652030475.5,286047009.2,N
1652030495.3,286047006.3,N
1652030515.2,286047007.1,N
1652030535.0,286047005.4,N
1652030535.9,286047005.4,N
1652030555.7,286047004.6,N
1652030575.6,286047005.7,N
1652030595.4,286047005.9,N
1652030615.3,286047003.1,N
1652030635.1,286047001.3,N
1652030636.0,286047001.3,N
1652030655.9,286047002.5,N
1652030675.7,286047002.1,N
1652030695.5,286047001.3,N
1652030715.4,286047003.8,N
1652030735.2,286047003.3,N
1652030755.0,286047003.6,N
1652030755.9,286047003.6,N
1652030775.8,286047001.3,N
1652030795.6,286047003.7,N
1652030815.5,286047004.3,N
1652030835.3,286047004.0,N
1652030855.1,286047003.6,N
1652030875.9,286047004.2,N
1652030895.7,286047001.4,N
1652030915.5,286047001.5,N
1652030935.4,286047002.5,N
1652030955.2,286047002.4,N
1652030975.1,286047002.4,N
1652030976.0,286047002.4,N
1652030995.8,286046999.7,N
1652031015.6,286047002.8,N
1652031035.5,286047002.6,N
1652031055.3,286047002.1,N
1652031075.1,286047001.4,N
1652031095.9,286047002.5,N
1652031115.7,286047001.6,N
1652031135.6,286047001.3,N
1652031155.4,286047003.6,Y
1652031175.2,286046999.8,P
1652031195.1,286047000.2,N
1652031196.0,286047000.2,N
1652031215.8,286047000.0,N
1652031235.7,286046999.8,N
1652031255.5,286047000.6,N
1652031275.3,286047001.2,N
1652031295.2,286047000.3,N
1652031315.0,286047000.9,N
1652031315.9,286047000.9,N
1652031335.7,286047001.0,N
1652031355.6,286046999.8,N
1652031375.4,286047000.8,N
1652031395.3,286047011.7,Y
1652031415.1,286047008.1,P
1652031435.8,286047006.3,N
1652031455.7,286047003.9,N
1652031475.5,286047000.1,N
1652031495.4,286047002.0,N
1652031515.2,286046999.8,N
1652031535.0,286047002.3,N
1652031535.9,286047002.3,N
1652031555.8,286047002.3,N
1652031575.6,286047001.4,N
1652031595.5,286047001.5,N
1652031615.3,286047001.9,N
1652031635.1,286047001.7,N
1652031655.9,286047004.2,N
1652031675.7,286047001.3,N
1652031725.6,286047003.5,E
1652031735.5,286046999.7,N
1652031755.3,286046998.2,P
1652031775.2,286046998.8,N
1652031795.0,286046998.3,N
1652031795.9,286046998.3,N
1652031815.8,286046999.3,N
1652031835.6,286046996.7,Y
1652031855.4,286046999.1,P
1652031875.3,286046998.8,P
1652031895.1,286046998.3,P
1652031915.8,286047000.7,N
1652031935.7,286046998.1,N
1652031955.5,286046998.2,N
1652031975.4,286046996.6,Y
1652031995.2,286047001.1,P
1652032015.0,286046998.1,N
1652032015.9,286046998.1,N
1652032035.8,286047000.5,N
1652032055.6,286047001.1,N
1652032075.4,286046998.4,N
1652032095.3,286046998.8,N
1652032115.1,286046999.1,N
1652032135.9,286046997.7,N
1652032155.7,286046996.7,N
1652032175.5,286046999.2,N
1652032195.4,286046999.4,N
1652032215.2,286047001.1,N
1652032235.0,286047000.5,N
1652032236.0,286047000.5,N
1652032255.8,286046998.2,N
1652032275.6,286047006.6,Y
1652032295.5,286047014.3,P
1652032315.3,286047013.0,N
1652032335.1,286047016.1,N
1652032355.9,286047015.4,N
1652032375.7,286047009.4,N
1652032395.6,286047008.0,N
1652032415.4,286047007.3,N
1652032435.2,286047006.2,N
1652032455.1,286047004.8,N
1652032456.0,286047004.8,N
1652032475.8,286047004.8,N
1652032495.6,286047003.5,N
1652032515.5,286047005.8,N
1652032535.3,286047005.4,N
1652032555.2,286047002.9,N
1652032575.9,286047003.4,N
1652032595.7,286047003.7,N
1652032615.6,286047003.3,N
1652032635.4,286047001.8,N
1652032655.2,286047002.3,N
1652032675.1,286047002.3,N
1652032676.0,286047002.3,N
1652032695.8,286047001.5,N
1652032715.7,286047002.0,N
1652032735.5,286046999.7,N
1652032755.3,286047000.3,N
1652032775.2,286047001.2,N
1652032795.9,286047000.7,N
